RAINCUBE (43548 NORAD) Tracking and Keplerian Element Data

This shows tracking and keplerian element data for the satellite.

Feedback or suggestion? Click here.




ElementValue
Catalog43548
NameRAINCUBE
Epoch Orbit4438
Epoch Day114.02348473
Epoch Year2019
RAAN263.0201
Inclination51.6374
Eccentricity0.0005568
Argument of Perigee285.0125
Mean Anonmoly75.0251
Mean Motion15.60134914
Decay Rate0.00012325
L11 43548U 98067NW 19114.02348473 .00012325 00000-0 15471-3 0 9995
L22 43548 51.6374 263.0201 0005568 285.0125 75.0251 15.60134914 44386

Live tracking and technical data element details for RAINCUBE (NORAD 43548). RAINCUBE can be tracked NOW for your location showing map with azimuth and elevation plus other details from your city location.

Track the satellite on the map from your city or location and see movement details for azimuth, elevation, latitude, longitude, range, height, and movement on the map or in text.







IsCatalogInMostPopularTable: catalog: 43548, numindb: 139
Update: records affected: 1



GetName: 43548 RAINCUBE

Hit Count: updated at: Thu, 25 Apr 2019 20:22:41 GMT